Weather in Krasnyy Voskhod

Russia / Voronezh Oblast     50°36′07″N   39°37′05″E
temp.,
°C
wind,
m/s
gust,
m/s
humid.,
%
clouds,
%
prec.,
mm/h
press.,
hPa
HPBL,
m
4 march, thu
thu400:00−2w512880 0.0 1019373
03:00−1w6119229 0.0 1019639
06:00−1wsw81291100 0.0 1017589
09:000wsw81384100 0.0 1015711
12:00+3wsw913679 0.0 1013946
15:00+5wsw915615 0.0 10101107
18:00+3sw717710 0.0 1008547
21:00+3sw7188116 0.0 1007621
5 march, fri
fri500:00+3wsw6148768 0.0 1006617
03:00+2wsw6139383 0.1 1006539
06:00+2w41098100 1.1 1007431
09:00+1wnw61093100 1.6 1008613
12:00+2wnw567699 0.1 1010898
15:00+1wnw567899 0.1 1011757
18:000wnw2482100 0.0 1013165
21:00−1n1288100 0.0 101423
6 march, sat
sat600:00−1ene2389100 0.0 1014177
03:00−1ene2492100 0.1 1014363
06:00−2ene3493100 0.4 1014351
09:00−1nne2391100 1.0 1014288
12:00−1nnw2389100 1.3 1015419
15:00+1nnw466395 2.2 10151244
18:00−2nw6107355 0.4 1015715
21:00−4nw6107253 0.4 1017833
7 march, sun
sun700:00−4nw697640 0.0 1018895
03:00−5nw697669 0.1 1020825
06:00−5wnw586367 0.0 1021755
09:00−4w696233 0.0 1020947
12:00−1wsw8125361 0.0 10181219
15:000wsw10154681 0.0 10151343
18:00−1wsw91752100 0.0 10121392
21:00−1wsw91662100 0.0 10111247
8 march, mon
mon800:00−1wsw8156691 0.0 1010940
03:00−1wsw8147194 0.0 1008793
06:00−2wsw8157899 0.0 1007840
09:00−1wsw101583100 0.2 1006988
12:00+1w101475100 0.1 10071284
15:00+1wnw7115599 0.4 10101420
18:00−2nnw474897 0.0 1011601
21:00−3nne354398 0.0 1013528